Weather History for Cincinnati, OH

Change the Weather History Date:

Tuesday, December 10, 2013

  Actual Average Record
Temperature  
Mean Temperature 24 °F -  
Max Temperature 28 °F 43 °F 70 °F (1971)
Min Temperature 19 °F 28 °F 3 °F (1958)
Degree Days  
Heating Degree Days 42    
Moisture  
Dew Point 17 °F    
Average Humidity 78    
Maximum Humidity 93    
Minimum Humidity 56    
Precipitation  
Precipitation 0.06 in - - ()
Sea Level Pressure  
Sea Level Pressure 30.25 in    
Wind  
Wind Speed 7 mph (West)    
Max Wind Speed 21 mph    
Max Gust Speed 29 mph    
Visibility 6 miles    
Events Snow    
Averages and records for this station are not official NWS values.
T = Trace of Precipitation, MM = Missing Value Source: NWS Daily Summary

Daily Weather History Graph

Daily Weather History Graph

Search for Another Location

Airport:

Trip Planner

Search our weather history database for the weather conditions in past years. The results will help you decide how hot, cold, wet, or windy it might be!

Date:

Astronomy

Dec. 10, 2013 Rise Set
Actual Time 7:46 AM EST 5:15 PM EST
Civil Twilight 7:16 AM EST 5:44 PM EST
Nautical Twilight 6:42 AM EST 6:18 PM EST
Astronomical Twilight 6:10 AM EST 6:50 PM EST
Moon 1:13 PM EST (12/10) 1:06 AM EST (12/10)
Length of Visible Light 10h 28m
Length of Day
9h 28m
First Quarter, 61% of the Moon is Illuminated
Dec 10
First Quarter
Dec 17
Full
Dec 25
Last Quarter
Jan 1
New
Jan 7
First Quarter

Hourly Weather History & Observations

Time (EST) Temp. Windchill Dew Point Humidity Pressure Visibility Wind Dir Wind Speed Gust Speed Precip Events Conditions
12:53 AM 26.1 °F 21.9 °F 18.0 °F 71% 30.25 in 10.0 mi North 3.5 mph - N/A   Overcast
1:53 AM 25.0 °F 19.3 °F 16.0 °F 69% 30.23 in 10.0 mi WNW 4.6 mph - N/A   Overcast
2:37 AM 23.0 °F 13.9 °F 19.4 °F 86% 30.19 in 2.0 mi NNW 8.1 mph - 0.00 in Snow Light Snow
2:46 AM 23.0 °F 14.7 °F 19.4 °F 86% 30.20 in 1.8 mi NNW 6.9 mph - 0.00 in Snow Light Snow
2:53 AM 23.0 °F 15.8 °F 19.0 °F 85% 30.22 in 2.0 mi NW 5.8 mph - 0.00 in Snow Light Snow
3:04 AM 23.0 °F 14.7 °F 19.4 °F 86% 30.21 in 1.5 mi NNW 6.9 mph - 0.00 in Snow Light Snow
3:27 AM 23.0 °F - 19.4 °F 86% 30.22 in 3.0 mi Calm Calm - 0.00 in Snow Light Snow
3:34 AM 23.0 °F 18.4 °F 19.4 °F 86% 30.22 in 4.0 mi NNW 3.5 mph - 0.00 in Snow Light Snow
3:53 AM 23.0 °F - 19.0 °F 85% 30.24 in 2.5 mi Calm Calm - 0.01 in Snow Light Snow
3:58 AM 21.2 °F 13.6 °F 19.4 °F 93% 30.22 in 1.8 mi NNW 5.8 mph - 0.00 in Snow Light Snow
4:41 AM 21.2 °F 12.6 °F 19.4 °F 93% 30.20 in 1.0 mi NW 6.9 mph - 0.02 in Snow Light Snow
4:53 AM 21.0 °F 13.4 °F 19.0 °F 92% 30.21 in 1.0 mi NNW 5.8 mph - 0.02 in Snow Light Snow
5:16 AM 21.2 °F 14.9 °F 17.6 °F 86% 30.19 in 2.0 mi NW 4.6 mph - 0.01 in Snow Light Snow
5:35 AM 21.2 °F - 17.6 °F 86% 30.18 in 3.0 mi Calm Calm - 0.01 in Snow Light Snow
5:53 AM 21.9 °F - 18.0 °F 85% 30.21 in 4.0 mi Calm Calm - 0.01 in Snow Light Snow
6:07 AM 21.2 °F - 17.6 °F 86% 30.19 in 2.0 mi Calm Calm - 0.00 in Snow Light Snow
6:11 AM 21.2 °F - 19.4 °F 93% 30.19 in 1.8 mi Calm Calm - 0.00 in Snow Light Snow
6:53 AM 21.0 °F 14.6 °F 18.0 °F 88% 30.22 in 1.8 mi WNW 4.6 mph - 0.02 in Snow Light Snow
7:53 AM 21.9 °F 12.5 °F 18.0 °F 85% 30.24 in 1.8 mi West 8.1 mph - 0.00 in Snow Light Snow
8:34 AM 21.2 °F 11.7 °F 17.6 °F 86% 30.24 in 3.0 mi WNW 8.1 mph - 0.00 in Snow Light Snow
8:53 AM 21.0 °F 9.9 °F 16.0 °F 81% 30.27 in 7.0 mi West 10.4 mph - 0.00 in   Overcast
9:28 AM 21.2 °F 10.1 °F 15.8 °F 80% 30.26 in 8.0 mi WNW 10.4 mph - N/A   Mostly Cloudy
9:53 AM 21.9 °F 11.7 °F 16.0 °F 78% 30.27 in 8.0 mi West 9.2 mph - N/A   Scattered Clouds
10:05 AM 21.2 °F 7.8 °F 15.8 °F 80% 30.25 in 9.0 mi WSW 15.0 mph - N/A   Scattered Clouds
10:53 AM 23.0 °F 10.1 °F 12.9 °F 65% 30.30 in 2.5 mi West 15.0 mph 21.9 mph N/A   Haze
11:00 AM 23.0 °F 10.1 °F 14.0 °F 68% 30.27 in 10.0 mi WSW 15.0 mph 21.9 mph N/A   Clear
11:53 AM 23.0 °F 11.7 °F 15.1 °F 72% 30.28 in 10.0 mi SW 11.5 mph 18.4 mph N/A   Scattered Clouds
12:53 PM 25.0 °F 12.6 °F 16.0 °F 69% 30.25 in 10.0 mi SSW 15.0 mph - N/A   Clear
1:53 PM 27.0 °F 13.2 °F 17.1 °F 66% 30.23 in 10.0 mi SSW 20.7 mph - N/A   Clear
2:53 PM 28.0 °F 14.6 °F 16.0 °F 61% 30.23 in 10.0 mi SW 20.7 mph 28.8 mph N/A   Clear
3:53 PM 28.9 °F 17.3 °F 15.1 °F 56% 30.23 in 10.0 mi SW 16.1 mph 25.3 mph N/A   Clear
4:53 PM 28.0 °F 17.5 °F 16.0 °F 61% 30.26 in 10.0 mi SW 12.7 mph 25.3 mph N/A   Clear
5:53 PM 26.1 °F 15.6 °F 16.0 °F 66% 30.29 in 10.0 mi SW 11.5 mph - N/A   Clear
6:53 PM 25.0 °F 16.3 °F 16.0 °F 69% 30.32 in 10.0 mi SW 8.1 mph - N/A   Clear
7:53 PM 24.1 °F 14.4 °F 14.0 °F 65% 30.33 in 10.0 mi WSW 9.2 mph - N/A   Clear
8:53 PM 21.9 °F 13.4 °F 12.9 °F 68% 30.33 in 10.0 mi SSW 6.9 mph - N/A   Clear
9:53 PM 21.0 °F 12.4 °F 12.9 °F 71% 30.36 in 10.0 mi SSW 6.9 mph - N/A   Clear
10:53 PM 19.9 °F 14.9 °F 12.9 °F 74% 30.38 in 10.0 mi SW 3.5 mph - N/A   Clear
11:53 PM 21.0 °F 12.4 °F 12.9 °F 71% 30.41 in 10.0 mi SW 6.9 mph - N/A   Clear